• In Hungary
  • List of Countries
  • For 7 days
  • Water Temperature
  • Satellite Maps
  • Weather Map
  • News
  • Weather Widgets
  • user-avatar
    Login

    Hourly Weather Peredovik

    Today, 25 September, Tuesday

    Time Temperature Precipitation Wind Pressure Humidity
    00:00 +11°C° 0.4 mm 7 mps 745 mmHg 69%
    01:00 +11°C° 0.3 mm 7 mps 745 mmHg 71%
    02:00 +11°C° 0.3 mm 7 mps 744 mmHg 73%
    03:00 +10°C° 0.3 mm 6 mps 743 mmHg 74%
    04:00 +10°C° 0.3 mm 6 mps 743 mmHg 77%
    05:00 +10°C° 0.3 mm 6 mps 743 mmHg 79%
    06:00 +10°C° 0.3 mm 6 mps 743 mmHg 81%
    07:00 +10°C° 0.5 mm 5 mps 743 mmHg 83%
    08:00 +10°C° 0.5 mm 5 mps 743 mmHg 85%
    09:00 +10°C° 0.5 mm 4 mps 743 mmHg 87%
    10:00 +10°C° 0.1 mm 5 mps 743 mmHg 82%
    11:00 +10°C° 0.1 mm 5 mps 744 mmHg 77%
    12:00 +12°C° 0.1 mm 5 mps 744 mmHg 72%
    13:00 +12°C° 0 mm 5 mps 744 mmHg 71%
    14:00 +12°C° 0 mm 5 mps 745 mmHg 69%
    15:00 +12°C° 0 mm 5 mps 745 mmHg 68%
    16:00 +10°C° 0 mm 5 mps 745 mmHg 70%
    17:00 +11°C° 0 mm 4 mps 746 mmHg 72%
    18:00 +10°C° 0 mm 4 mps 746 mmHg 74%
    19:00 +10°C° 0 mm 4 mps 747 mmHg 76%
    20:00 +8°C° 0 mm 4 mps 747 mmHg 79%
    21:00 +7°C° 0 mm 4 mps 748 mmHg 81%
    22:00 +7°C° 0 mm 4 mps 748 mmHg 81%
    23:00 +6°C° 0 mm 4 mps 749 mmHg 82%

    Tomorrow, 26 September, Wednesday

    Time Temperature Precipitation Wind Pressure Humidity
    00:00 +6°C° 0 mm 4 mps 749 mmHg 82%
    01:00 +6°C° 0 mm 4 mps 750 mmHg 82%
    02:00 +6°C° 0 mm 4 mps 750 mmHg 82%
    03:00 +6°C° 0 mm 4 mps 751 mmHg 82%
    04:00 +5°C° 0 mm 4 mps 751 mmHg 83%
    05:00 +5°C° 0 mm 4 mps 752 mmHg 84%
    06:00 +5°C° 0 mm 4 mps 752 mmHg 85%
    07:00 +6°C° 0 mm 4 mps 753 mmHg 81%
    08:00 +6°C° 0 mm 4 mps 754 mmHg 77%
    09:00 +7°C° 0 mm 5 mps 754 mmHg 74%
    10:00 +8°C° 0 mm 5 mps 755 mmHg 70%
    11:00 +8°C° 0 mm 5 mps 755 mmHg 67%
    12:00 +9°C° 0 mm 5 mps 756 mmHg 64%
    13:00 +9°C° 0 mm 5 mps 756 mmHg 63%
    14:00 +8°C° 0 mm 5 mps 756 mmHg 63%
    15:00 +8°C° 0 mm 5 mps 756 mmHg 62%
    16:00 +8°C° 0 mm 4 mps 757 mmHg 63%
    17:00 +7°C° 0 mm 4 mps 757 mmHg 64%
    18:00 +7°C° 0 mm 4 mps 757 mmHg 64%
    19:00 +7°C° 0 mm 3 mps 757 mmHg 64%
    20:00 +7°C° 0 mm 3 mps 757 mmHg 65%
    21:00 +7°C° 0 mm 3 mps 757 mmHg 65%
    22:00 +7°C° 0 mm 3 mps 757 mmHg 67%
    23:00 +5°C° 0 mm 3 mps 757 mmHg 69%

    Day after tomorrow, 27 September, Thursday

    Time Temperature Precipitation Wind Pressure Humidity
    00:00 +5°C° 0 mm 4 mps 757 mmHg 71%
    01:00 +5°C° 0 mm 4 mps 756 mmHg 72%
    02:00 +4°C° 0 mm 4 mps 756 mmHg 73%
    03:00 +3°C° 0 mm 5 mps 755 mmHg 74%
    04:00 +3°C° 0 mm 5 mps 755 mmHg 72%
    05:00 +4°C° 0 mm 6 mps 754 mmHg 70%
    06:00 +4°C° 0 mm 6 mps 753 mmHg 68%
    07:00 +4°C° 0.1 mm 7 mps 753 mmHg 66%
    08:00 +5°C° 0.1 mm 8 mps 752 mmHg 64%
    09:00 +5°C° 0.1 mm 8 mps 752 mmHg 62%
    10:00 +5°C° 0.9 mm 9 mps 751 mmHg 66%
    11:00 +5°C° 0.9 mm 9 mps 750 mmHg 70%
    12:00 +5°C° 0.9 mm 9 mps 750 mmHg 73%
    13:00 +5°C° 0.7 mm 9 mps 749 mmHg 76%
    14:00 +5°C° 0.7 mm 9 mps 749 mmHg 78%
    15:00 +5°C° 0.7 mm 9 mps 749 mmHg 81%
    16:00 +6°C° 0.5 mm 8 mps 748 mmHg 83%
    17:00 +6°C° 0.5 mm 8 mps 748 mmHg 84%
    18:00 +6°C° 0.5 mm 7 mps 748 mmHg 86%
    19:00 +6°C° 0.3 mm 7 mps 748 mmHg 87%
    20:00 +8°C° 0.3 mm 6 mps 748 mmHg 87%
    21:00 +8°C° 0.3 mm 6 mps 749 mmHg 88%
    22:00 +8°C° 0 mm 5 mps 749 mmHg 89%
    23:00 +7°C° 0 mm 5 mps 749 mmHg 90%

    28 September, Friday

    Time Temperature Precipitation Wind Pressure Humidity
    00:00 +7°C° 0 mm 4 mps 750 mmHg 91%
    01:00 +6°C° 0 mm 4 mps 750 mmHg 91%
    02:00 +6°C° 0 mm 4 mps 750 mmHg 91%
    03:00 +5°C° 0 mm 4 mps 751 mmHg 91%
    04:00 +5°C° 0 mm 4 mps 751 mmHg 92%
    05:00 +5°C° 0 mm 3 mps 751 mmHg 92%
    06:00 +4°C° 0 mm 3 mps 751 mmHg 92%
    07:00 +6°C° 0 mm 4 mps 751 mmHg 87%
    08:00 +7°C° 0 mm 4 mps 752 mmHg 81%
    09:00 +8°C° 0 mm 4 mps 752 mmHg 75%
    10:00 +10°C° 0 mm 5 mps 751 mmHg 68%
    11:00 +11°C° 0 mm 6 mps 751 mmHg 61%
    12:00 +14°C° 0 mm 6 mps 751 mmHg 54%
    13:00 +14°C° 0 mm 7 mps 750 mmHg 54%
    14:00 +15°C° 0 mm 7 mps 750 mmHg 54%
    15:00 +16°C° 0 mm 8 mps 749 mmHg 54%
    16:00 +15°C° 0 mm 7 mps 749 mmHg 61%
    17:00 +15°C° 0 mm 7 mps 748 mmHg 68%
    18:00 +14°C° 0 mm 7 mps 748 mmHg 74%
    19:00 +14°C° 0 mm 7 mps 747 mmHg 75%
    20:00 +14°C° 0 mm 7 mps 747 mmHg 75%
    21:00 +14°C° 0 mm 7 mps 747 mmHg 76%
    22:00 +14°C° 0.1 mm 7 mps 747 mmHg 77%
    23:00 +14°C° 0.1 mm 7 mps 746 mmHg 78%

    29 September, Saturday

    Time Temperature Precipitation Wind Pressure Humidity
    00:00 +14°C° 0.1 mm 7 mps 746 mmHg 79%
    01:00 +14°C° 0.1 mm 7 mps 747 mmHg 80%
    02:00 +13°C° 0.1 mm 6 mps 747 mmHg 81%
    03:00 +13°C° 0.1 mm 5 mps 748 mmHg 82%
    04:00 +12°C° 0 mm 4 mps 749 mmHg 83%
    05:00 +10°C° 0 mm 4 mps 749 mmHg 84%
    06:00 +9°C° 0 mm 3 mps 750 mmHg 86%
    07:00 +9°C° 0 mm 3 mps 751 mmHg 82%
    08:00 +9°C° 0 mm 3 mps 751 mmHg 79%
    09:00 +9°C° 0 mm 3 mps 752 mmHg 75%
    10:00 +10°C° 0 mm 3 mps 752 mmHg 68%
    11:00 +10°C° 0 mm 3 mps 753 mmHg 62%
    12:00 +11°C° 0 mm 3 mps 753 mmHg 55%
    13:00 +11°C° 0 mm 3 mps 753 mmHg 52%
    14:00 +13°C° 0 mm 2 mps 753 mmHg 49%
    15:00 +13°C° 0 mm 2 mps 753 mmHg 45%
    16:00 +12°C° 0 mm 2 mps 754 mmHg 48%
    17:00 +10°C° 0 mm 2 mps 754 mmHg 51%
    18:00 +9°C° 0 mm 2 mps 754 mmHg 54%
    19:00 +9°C° 0 mm 2 mps 754 mmHg 53%
    20:00 +8°C° 0 mm 3 mps 755 mmHg 53%
    21:00 +8°C° 0 mm 3 mps 755 mmHg 52%
    22:00 +8°C° 0 mm 3 mps 756 mmHg 54%
    23:00 +7°C° 0 mm 3 mps 756 mmHg 55%

    30 September, Sunday

    Time Temperature Precipitation Wind Pressure Humidity
    00:00 +7°C° 0 mm 3 mps 756 mmHg 57%
    01:00 +5°C° 0 mm 3 mps 756 mmHg 60%
    02:00 +5°C° 0 mm 3 mps 757 mmHg 63%
    03:00 +4°C° 0 mm 3 mps 757 mmHg 66%
    04:00 +3°C° 0 mm 3 mps 757 mmHg 68%
    05:00 +3°C° 0 mm 3 mps 758 mmHg 70%
    06:00 +3°C° 0 mm 3 mps 758 mmHg 72%
    07:00 +4°C° 0 mm 3 mps 758 mmHg 68%
    08:00 +5°C° 0 mm 3 mps 759 mmHg 64%
    09:00 +6°C° 0 mm 4 mps 759 mmHg 60%
    10:00 +7°C° 0 mm 4 mps 759 mmHg 55%
    11:00 +8°C° 0 mm 4 mps 759 mmHg 51%
    12:00 +10°C° 0 mm 4 mps 760 mmHg 47%
    13:00 +10°C° 0 mm 4 mps 760 mmHg 45%
    14:00 +10°C° 0 mm 3 mps 759 mmHg 44%
    15:00 +10°C° 0 mm 3 mps 759 mmHg 43%
    16:00 +9°C° 0 mm 3 mps 759 mmHg 47%
    17:00 +8°C° 0 mm 2 mps 760 mmHg 50%
    18:00 +7°C° 0 mm 2 mps 760 mmHg 54%
    19:00 +6°C° 0 mm 2 mps 760 mmHg 56%
    20:00 +6°C° 0 mm 2 mps 760 mmHg 57%
    21:00 +5°C° 0 mm 2 mps 761 mmHg 59%
    22:00 +5°C° 0 mm 2 mps 761 mmHg 60%
    23:00 +4°C° 0 mm 2 mps 760 mmHg 61%
    Show more